Vorticity
nan nan nan nan nan nan nan nan nan nan nan nan nan nan nan nan nan nan nan nan nan nan nan nan nan nan nan nan nan nan nan nan nan nan nan nan nan nan nan nan nan nan nan nan nan nan nan nan nan nan nan nan nan nan nan nan nan nan nan nan nan nan nan nan nan nan nan nan nan
nan 11 11 10 10 9 9 9 10 9 8 7 7 7 7 7 7 7 7 8 7 7 7 8 6 4 4 6 9 10 10 9 8 8 8 8 8 7 7 7 6 7 7 8 9 11 11 10 11 11 11 12 12 13 12 10 10 10 9 4 4 9 12 13 11 12 11 9 nan
nan 10 10 10 10 9 8 8 8 8 8 8 7 7 7 7 7 7 7 6 6 7 8 7 6 6 7 10 10 10 9 9 9 8 8 9 8 7 6 6 6 7 7 9 9 7 5 7 10 11 9 8 8 10 13 13 10 10 13 11 7 7 8 12 14 13 12 13 nan
nan 9 8 8 8 7 7 6 5 6 8 8 7 7 7 7 7 7 7 7 9 9 8 5 6 8 10 10 8 8 8 8 9 10 10 8 8 8 8 6 7 8 9 8 7 6 5 6 10 11 9 7 9 10 11 12 11 10 13 16 11 9 7 9 11 11 10 11 nan
nan 8 7 7 6 6 6 5 4 5 7 8 6 6 7 8 7 7 7 8 9 6 4 5 8 9 8 7 7 8 9 10 12 11 10 9 10 10 10 8 8 9 10 9 8 8 8 10 11 11 11 12 13 12 9 7 9 9 8 10 10 10 9 8 9 9 8 8 nan
nan 7 7 7 7 6 6 4 4 5 7 6 4 4 6 6 5 4 5 6 6 6 8 12 11 9 6 7 9 11 11 13 12 10 9 10 11 10 10 11 10 9 8 8 8 9 11 13 12 12 12 13 13 11 9 9 9 9 7 5 8 9 10 7 7 8 7 5 nan
nan 6 6 7 7 6 5 4 5 5 6 5 5 5 5 4 3 3 5 7 8 10 13 13 9 6 5 7 9 10 10 10 9 9 10 12 10 9 10 11 10 9 7 7 8 10 11 13 11 11 11 11 14 15 14 11 9 8 6 4 5 8 10 9 7 8 8 6 nan
nan 6 6 6 6 5 4 4 5 6 6 5 5 6 6 6 6 7 9 10 9 9 10 8 5 4 5 7 8 8 9 10 10 11 11 10 9 10 10 11 10 10 10 10 9 8 8 11 10 10 9 10 11 15 17 13 8 6 6 4 2 4 5 7 6 5 6 8 nan
nan 7 7 6 6 5 4 5 6 6 5 5 6 7 9 9 10 10 11 11 9 8 7 5 5 6 8 8 9 10 11 11 11 10 10 10 10 10 11 12 11 11 11 11 11 9 8 8 8 7 7 7 6 8 13 16 12 8 6 7 4 2 -1 1 2 1 3 8 nan
nan 6 6 6 6 5 6 6 7 7 7 7 8 9 10 10 10 10 11 9 7 6 6 5 6 8 9 11 12 11 11 11 11 10 9 9 9 9 10 10 9 9 9 9 11 13 13 11 7 3 2 3 4 5 9 14 14 10 3 4 6 4 -0 -1 1 3 3 6 nan
nan 6 5 5 6 6 7 7 8 9 9 8 8 9 10 10 9 9 8 6 5 5 7 7 8 9 11 12 12 11 10 9 8 8 8 8 8 9 9 7 8 8 8 7 10 13 15 11 7 4 2 0 6 10 12 12 12 10 4 -0 3 5 4 2 2 5 7 7 nan
nan 6 6 6 7 7 7 6 7 8 8 8 8 9 10 9 8 8 8 6 7 9 10 9 9 10 11 11 10 10 9 8 7 8 9 9 9 9 9 9 9 9 10 10 11 11 11 8 7 7 6 3 7 10 12 10 10 9 7 3 3 4 6 5 3 3 5 6 nan
nan 6 7 7 7 6 5 5 6 7 7 7 9 10 10 8 8 9 9 9 10 11 10 10 11 12 11 9 8 8 8 8 8 8 8 9 10 10 11 11 11 11 13 14 12 9 6 7 7 9 10 9 5 4 6 8 8 9 9 7 5 4 5 5 4 2 2 3 nan
nan 6 6 7 6 6 5 6 8 7 6 7 9 9 9 9 10 10 10 10 9 9 9 11 12 12 9 7 7 6 7 8 8 8 8 9 9 10 11 11 11 12 13 13 11 9 7 6 8 10 11 11 7 5 6 8 8 8 9 9 8 6 5 6 5 4 4 4 nan
nan 7 6 5 5 5 5 8 10 8 7 8 9 9 10 10 10 10 9 8 10 11 11 10 9 8 8 8 8 8 9 9 9 10 10 10 10 10 10 10 10 11 10 8 9 10 10 9 10 11 12 12 11 10 10 11 10 9 9 9 9 8 7 6 5 5 5 5 nan
nan 6 5 5 5 6 7 9 9 7 7 7 8 8 9 10 9 9 8 9 12 11 8 6 7 8 9 10 10 11 12 12 11 11 12 11 11 10 10 10 10 10 9 8 9 9 10 11 12 12 12 12 12 13 13 12 12 12 11 10 11 10 9 8 7 7 6 6 nan
nan 6 5 5 5 6 7 8 7 6 5 5 7 9 9 9 8 7 8 9 9 6 4 6 8 8 8 8 11 12 13 12 12 11 11 10 9 9 10 10 10 10 10 10 10 9 9 10 10 11 12 13 13 13 13 13 13 13 13 13 12 12 12 11 10 10 10 10 nan
nan 6 6 5 5 6 7 7 6 5 5 7 8 9 8 7 6 7 7 7 6 5 5 8 9 8 7 7 9 11 11 10 9 8 8 8 9 10 10 10 11 10 11 11 11 11 10 10 10 11 12 13 13 13 13 13 13 13 13 13 12 13 13 13 12 12 13 13 nan
nan 6 6 6 6 7 7 7 7 7 8 9 8 7 6 6 7 7 7 7 6 6 8 9 9 8 7 7 8 8 8 9 8 8 8 9 10 10 10 10 10 10 10 11 11 11 11 12 12 12 11 11 11 11 11 11 11 12 12 13 14 13 13 13 13 12 12 13 nan
nan 6 6 6 7 7 8 8 8 8 8 8 6 6 6 7 8 7 7 7 7 8 9 10 9 8 7 8 8 8 10 11 10 10 10 11 10 10 10 11 11 11 12 12 12 12 11 12 12 12 12 11 10 10 11 12 12 11 11 14 15 14 13 12 13 12 12 12 nan
nan 7 7 7 7 7 8 8 8 8 8 7 7 7 8 8 8 8 8 8 8 9 10 10 9 8 7 8 9 10 11 10 9 10 11 12 11 11 11 12 12 12 12 12 12 12 11 11 11 11 12 12 12 12 11 12 12 12 11 10 10 11 11 11 12 12 13 13 nan
nan 8 8 8 8 8 7 7 7 8 8 7 8 9 9 9 8 8 9 9 10 10 10 11 10 9 9 9 9 10 11 8 8 9 11 11 11 11 12 13 12 12 11 13 13 14 14 14 13 13 13 14 13 12 11 10 10 12 12 8 7 8 10 11 12 12 13 13 nan
nan 8 9 9 8 7 7 7 7 7 7 7 8 9 9 9 9 9 9 10 10 10 11 13 12 10 10 10 10 10 10 8 8 9 9 9 9 10 11 12 13 14 15 18 17 17 16 18 19 18 17 16 16 15 14 12 11 11 12 11 11 11 12 12 11 11 11 11 nan
nan 8 8 7 6 7 7 7 7 7 7 7 8 9 9 9 9 10 10 10 9 9 11 10 9 9 11 12 12 12 11 10 10 10 10 10 10 11 12 14 16 17 19 18 12 8 7 10 14 17 18 17 17 17 18 17 14 13 13 14 13 13 13 12 11 10 10 10 nan
nan 8 7 5 5 6 6 6 6 6 7 7 8 9 9 10 11 10 9 9 9 9 9 9 9 12 14 14 13 13 13 13 12 11 10 11 11 11 13 15 17 18 18 12 5 2 1 -2 -0 4 8 12 13 14 15 16 16 14 14 14 14 13 13 13 13 12 11 12 nan
nan 8 7 6 5 5 5 6 6 7 7 7 8 9 9 11 11 9 8 9 9 10 11 13 14 14 14 13 12 12 12 13 12 10 10 10 10 10 12 14 14 15 12 5 4 5 6 3 -1 -3 -1 5 9 10 12 13 13 12 12 12 12 12 11 12 12 12 12 13 nan
nan 8 7 6 5 5 6 7 7 7 7 7 8 9 10 11 9 8 8 10 10 11 14 15 15 16 16 14 11 10 10 9 9 10 11 11 10 11 12 13 13 10 5 -0 2 6 8 9 7 4 2 3 7 9 10 10 12 12 13 14 13 13 11 11 13 14 14 13 nan
nan 7 6 6 5 5 6 7 7 7 7 8 9 10 9 9 8 9 10 10 11 13 15 16 17 17 16 11 8 8 8 8 10 12 13 11 10 11 13 11 8 4 -1 -2 2 6 8 9 9 8 6 2 8 12 14 14 16 17 18 18 17 16 15 15 16 18 17 16 nan
nan 7 6 6 5 6 6 6 7 8 8 10 10 9 9 9 10 10 10 10 11 13 14 14 13 10 6 3 5 7 10 12 13 12 10 9 10 11 11 8 6 4 2 3 6 7 8 9 10 10 8 5 6 9 13 14 15 15 16 16 15 14 12 11 9 10 12 15 nan
nan 7 6 6 6 6 6 7 7 8 10 10 8 8 9 10 10 10 10 11 12 13 11 8 4 1 1 3 7 9 10 12 11 10 9 9 10 9 8 8 6 6 6 7 8 9 9 10 10 11 11 10 7 7 9 9 9 10 11 11 10 9 8 8 7 5 5 6 nan
nan 7 6 6 6 6 6 7 8 9 9 7 7 8 10 10 10 10 11 12 12 10 8 5 4 4 6 8 8 8 8 8 9 9 10 10 10 9 8 8 7 7 7 7 9 10 11 11 12 12 13 14 13 11 8 7 7 7 7 5 5 6 8 11 13 10 6 2 nan
nan 7 6 6 6 6 6 7 8 8 8 8 9 10 10 10 10 11 11 12 11 9 8 9 10 10 11 10 9 8 8 9 9 9 8 8 8 8 8 10 13 12 9 9 10 11 12 12 12 12 12 13 14 11 8 7 10 11 10 8 8 8 7 6 9 11 10 8 nan
nan 7 6 5 6 6 7 8 9 9 9 10 11 10 10 10 10 11 12 12 12 11 11 12 12 12 12 11 11 10 11 12 10 9 8 7 8 8 10 14 18 14 9 8 9 10 11 11 11 11 11 13 16 16 13 9 11 11 12 12 13 13 12 7 6 8 11 10 nan
nan 6 5 5 6 7 7 9 10 10 10 10 10 10 10 10 10 11 12 12 11 11 12 13 13 13 12 11 11 11 12 11 10 9 9 10 10 10 11 13 12 6 2 4 7 8 9 10 10 10 12 17 21 20 16 11 9 8 7 7 9 10 11 12 11 11 11 11 nan
nan 7 6 6 6 6 7 9 10 10 10 10 10 10 10 10 11 11 12 11 10 11 11 11 12 11 11 10 11 11 10 9 9 9 10 10 10 11 11 9 3 -1 0 5 8 10 10 11 12 12 16 23 24 21 18 17 15 12 9 8 9 10 9 10 12 13 14 14 nan
nan 8 6 5 5 6 7 9 10 10 11 11 10 10 9 10 12 12 12 12 12 11 11 11 10 10 9 10 11 11 10 9 9 10 10 10 11 11 11 9 5 4 7 10 11 12 12 13 13 15 19 26 22 18 16 19 19 19 17 15 14 14 14 15 14 14 13 14 nan
nan 7 6 4 4 6 8 10 10 10 10 10 9 9 10 11 13 13 13 13 13 12 11 11 10 9 9 10 10 9 8 9 9 10 11 11 12 12 11 10 9 10 11 12 12 12 12 13 13 16 20 23 17 14 14 16 16 18 19 20 19 18 17 19 21 20 17 12 nan
nan 6 5 5 6 7 9 10 10 10 9 9 10 10 11 13 14 13 12 12 12 11 11 10 9 9 9 9 10 9 9 9 10 11 12 12 12 11 10 10 10 11 11 10 10 10 11 12 13 14 17 16 14 14 15 15 13 13 15 18 19 20 18 17 20 23 23 18 nan
nan 6 6 6 8 9 9 9 10 10 10 10 10 10 11 13 13 11 11 12 11 10 11 10 8 9 9 11 11 10 10 10 11 12 12 12 10 9 9 10 11 10 8 7 8 10 11 11 12 13 15 16 17 17 16 15 13 12 12 13 16 19 19 15 15 18 22 25 nan
nan 6 7 9 10 10 10 9 10 10 10 10 9 10 12 13 12 11 12 12 10 11 12 11 9 9 9 11 12 11 10 10 11 11 11 10 9 9 12 14 12 10 9 10 11 12 12 12 12 13 16 20 19 17 16 15 15 13 12 11 13 17 19 17 15 15 18 25 nan
nan nan nan nan nan nan nan nan nan nan nan nan nan nan nan nan nan nan nan nan nan nan nan nan nan nan nan nan nan nan nan nan nan nan nan nan nan nan nan nan nan nan nan nan nan nan nan nan nan nan nan nan nan nan nan nan nan nan nan nan nan nan nan nan nan nan nan nan nan
CAPE
nan nan nan nan nan nan nan nan nan nan nan nan nan nan nan nan nan nan nan nan nan nan nan nan nan nan nan nan nan nan nan nan nan nan nan nan nan nan nan nan nan nan nan nan nan nan nan nan nan nan nan nan nan 8 8 34 33 7 7 6 5 11 11 7 2 2 nan 0 nan
nan nan nan nan nan nan nan nan nan nan nan nan nan nan nan nan nan nan nan nan nan nan nan nan nan nan nan nan nan nan nan nan nan nan nan nan nan nan nan nan nan nan nan nan nan nan nan nan nan nan nan nan nan 1 1 40 60 21 21 18 10 12 12 9 6 6 3 1 0
nan nan nan nan nan nan nan nan nan nan nan nan nan nan nan nan nan nan nan nan nan nan nan nan nan nan nan nan nan nan nan nan nan nan nan nan nan nan nan nan nan nan nan nan nan nan nan nan nan nan nan nan nan 1 1 24 23 23 23 28 18 9 9 4 8 8 5 nan 0
nan nan nan nan nan nan nan nan nan nan nan nan nan nan nan nan nan nan nan nan nan nan nan nan nan nan nan nan nan nan nan nan nan nan nan nan nan nan nan nan nan nan nan nan nan nan nan nan nan nan nan nan 1 8 8 21 33 22 22 30 23 18 18 7 6 6 0 nan nan
nan nan nan nan nan nan nan nan nan nan nan nan nan nan nan nan nan nan nan nan nan nan nan nan nan nan nan nan nan nan nan nan nan nan nan nan nan nan nan nan nan nan nan nan nan nan nan nan nan nan nan nan 0 15 15 44 56 44 44 31 26 21 21 9 3 3 0 nan nan
nan nan nan nan nan nan nan nan nan nan nan nan nan nan nan nan nan nan nan nan nan nan nan nan nan nan nan nan nan nan nan nan nan nan nan nan nan nan nan nan nan nan nan nan nan nan nan nan nan nan nan nan 13 29 29 53 63 69 69 44 30 24 24 11 2 2 0 nan nan
nan nan nan nan nan nan nan nan nan nan nan nan nan nan nan nan nan nan nan nan nan nan nan nan nan nan nan nan nan nan nan nan nan nan nan nan nan nan nan nan nan nan nan nan nan nan nan nan nan nan nan nan nan 45 45 64 58 67 67 60 40 29 29 33 16 16 2 0 nan
nan nan nan nan nan nan nan nan nan nan nan nan nan nan nan nan nan nan nan nan nan nan nan nan nan nan nan nan nan nan nan nan nan nan nan nan nan nan nan nan nan nan nan nan nan nan nan nan nan nan nan nan nan 27 27 85 83 81 81 79 52 60 60 87 84 84 23 16 2
nan nan nan nan nan nan nan nan nan nan nan nan nan nan nan nan nan nan nan nan nan nan nan nan nan nan nan nan nan nan nan nan nan nan nan nan nan nan nan nan nan nan nan nan nan nan nan nan nan nan nan nan nan 34 34 113 120 108 108 83 70 67 67 86 93 93 49 35 26
nan nan nan nan nan nan nan nan nan nan nan nan nan nan nan nan nan nan nan nan nan nan nan nan nan nan nan nan nan nan nan nan nan nan nan nan nan nan nan nan nan nan nan nan nan nan nan nan nan nan nan nan 0 56 56 143 161 136 136 66 84 109 109 92 89 89 61 43 44
nan nan nan nan nan nan nan nan nan nan nan nan nan nan nan nan nan nan nan nan nan nan nan nan nan nan nan nan nan nan nan nan nan nan nan nan nan nan nan nan nan nan nan nan nan nan nan nan 0 0 2 0 3 31 31 129 170 177 177 111 126 141 141 104 79 79 71 57 51
nan nan nan nan nan nan nan nan nan nan nan nan nan nan nan nan nan nan nan nan nan nan nan nan nan nan nan nan nan nan nan nan nan nan nan nan nan nan nan nan nan nan nan nan nan nan nan 0 1 1 1 1 2 12 12 62 127 168 168 163 152 153 153 134 93 93 56 48 56
nan nan nan nan nan nan nan nan nan nan nan nan nan nan nan nan nan nan nan nan nan nan nan nan nan nan nan nan nan nan nan nan nan nan nan nan nan nan nan nan nan nan nan nan 0 0 nan 2 4 4 4 3 8 14 14 26 58 103 103 131 130 113 113 125 84 84 47 36 30
nan nan nan nan nan nan nan nan nan nan nan nan nan nan nan nan nan nan nan nan nan nan nan nan nan nan nan nan nan nan nan nan nan nan nan nan nan nan nan nan nan nan nan nan 1 1 2 4 6 6 6 9 12 17 17 24 30 44 44 45 62 76 76 82 76 76 63 52 28
nan nan nan nan nan nan nan nan nan nan nan nan nan nan nan nan nan nan nan nan nan nan nan nan nan nan nan nan nan nan nan nan nan nan nan nan nan nan nan nan nan nan nan 1 3 3 4 4 6 6 9 14 17 22 22 26 30 35 35 37 35 48 48 51 56 56 57 56 42
nan nan nan nan nan nan nan nan nan nan nan nan nan nan nan nan nan nan nan nan nan nan nan nan nan nan nan nan nan nan nan nan nan nan nan nan nan nan nan nan nan nan nan 0 3 3 8 8 10 10 13 14 14 15 15 20 26 28 28 30 29 28 28 39 41 41 45 47 34
nan nan nan nan nan nan nan nan nan nan nan nan nan nan nan nan nan nan nan nan nan nan nan nan nan nan nan nan nan nan nan nan nan nan nan nan nan nan nan nan nan nan nan 0 3 3 6 9 13 13 17 15 12 11 11 14 16 19 19 22 22 23 23 22 27 27 35 40 32
nan nan nan nan nan nan nan nan nan nan nan nan nan nan nan nan nan nan nan nan nan nan nan nan nan nan nan nan nan nan nan nan nan nan nan nan nan nan nan nan nan 0 0 1 2 2 4 5 9 9 12 12 12 11 11 11 12 12 12 13 15 18 18 18 19 19 17 20 24
nan nan nan nan nan nan nan nan nan nan nan nan nan nan nan nan nan nan nan nan nan nan nan nan nan nan nan nan nan nan nan nan nan nan nan nan nan nan nan nan nan 0 0 1 2 2 4 7 8 8 9 12 12 11 11 10 11 14 14 13 15 17 17 18 18 18 19 22 22
nan nan nan nan nan nan nan nan nan nan nan nan nan nan nan nan nan nan nan nan nan nan nan nan nan nan nan nan nan nan nan nan nan nan nan nan nan nan nan 0 0 0 0 1 2 2 5 6 7 7 9 9 10 12 12 11 12 12 12 13 15 16 16 16 16 16 19 21 28
nan nan nan nan nan nan nan nan nan nan nan nan nan nan nan nan nan nan nan nan nan nan nan nan nan nan nan nan nan nan nan nan nan nan nan 1 1 1 1 0 0 1 1 1 2 2 4 6 7 7 8 9 9 11 11 11 11 13 13 10 12 17 17 14 14 14 17 20 26
nan nan nan nan nan nan nan nan nan nan nan nan nan nan nan nan nan nan nan nan nan nan nan nan nan nan nan nan nan nan nan nan nan 1 1 2 2 2 2 2 3 4 4 6 7 7 7 7 8 8 11 10 14 16 16 13 10 9 9 10 10 17 17 19 15 15 18 25 22
nan nan nan nan nan nan nan nan nan nan nan nan nan nan nan nan nan nan nan nan nan nan nan nan nan nan nan nan 0 0 1 2 2 4 4 7 4 5 5 3 5 8 8 6 6 6 10 10 12 12 14 14 19 23 23 23 18 16 16 15 16 16 16 20 18 18 20 25 24
nan nan nan nan nan nan nan nan nan nan nan nan nan nan nan nan nan nan nan nan nan 0 0 1 1 1 1 4 5 5 7 6 6 9 9 11 6 4 4 4 4 5 5 7 10 10 21 15 16 16 16 17 19 19 19 19 23 23 23 20 19 17 17 20 26 26 19 22 21
nan nan nan nan nan nan nan nan nan nan nan nan nan nan nan nan nan nan nan nan 0 nan nan 1 4 5 5 5 6 6 8 8 10 12 12 9 8 5 5 4 4 7 7 9 22 22 30 22 25 25 18 20 19 27 27 31 39 41 41 36 36 28 28 26 28 28 27 23 25
nan nan nan nan nan nan nan nan nan nan nan nan nan nan nan nan nan nan nan nan nan nan nan 1 3 3 3 6 5 5 7 6 6 11 11 10 9 6 6 5 4 13 13 23 26 26 31 41 40 40 24 24 23 25 25 28 51 63 63 59 50 40 40 32 30 30 26 27 27
nan nan nan nan nan nan nan nan nan nan nan nan nan nan nan nan nan nan nan nan nan 0 0 3 3 1 1 3 5 5 8 5 7 11 11 9 12 9 9 8 9 18 18 28 30 30 36 44 48 48 41 35 36 35 35 34 51 58 58 52 48 40 40 38 39 39 33 21 33
nan nan nan nan nan nan nan nan nan nan nan nan nan nan nan nan nan nan nan nan 0 0 0 nan 0 0 0 nan 2 2 8 9 9 8 8 10 11 8 8 9 11 16 16 24 28 28 34 40 45 45 43 28 35 45 45 43 36 33 33 44 42 44 44 44 46 46 50 45 38
nan nan nan nan nan nan nan nan nan nan nan nan nan nan nan nan nan nan nan nan 0 nan nan nan nan nan nan nan 1 1 5 7 7 7 7 10 11 13 13 11 9 11 11 21 25 25 27 31 31 31 32 32 29 32 32 31 29 31 31 30 35 40 40 34 37 37 38 44 39
nan nan nan nan nan nan nan nan nan nan nan nan nan nan nan nan nan nan nan nan nan nan nan nan nan nan nan nan 1 1 3 2 5 8 8 12 13 12 12 9 8 12 12 18 19 19 23 24 24 24 24 25 19 19 19 21 25 29 29 29 34 36 36 34 35 35 31 25 32
nan nan nan nan nan nan nan nan nan nan nan nan nan nan nan nan nan nan nan nan nan nan nan nan nan nan nan nan nan nan 0 1 4 9 9 15 14 9 9 6 10 9 9 15 18 18 20 22 21 21 21 22 13 15 15 20 23 23 23 25 32 34 34 31 29 29 33 25 26
nan nan nan nan nan nan nan nan nan nan nan nan nan nan nan nan nan nan nan nan nan nan nan nan nan nan nan nan nan nan nan 2 6 6 6 10 13 9 9 9 8 8 8 13 15 15 18 20 22 22 21 21 13 17 17 20 21 22 22 23 22 27 27 22 20 20 28 28 25
nan nan nan nan nan nan nan nan nan nan nan nan nan nan nan nan nan nan nan nan nan nan nan nan nan nan nan nan nan nan 0 3 9 9 9 9 10 7 7 6 5 6 6 11 13 13 15 19 20 20 22 21 15 19 19 19 16 19 19 19 20 24 24 25 23 23 26 28 25
nan nan nan nan nan nan nan nan 0 0 nan nan nan nan nan nan nan nan nan nan nan nan nan nan nan nan nan nan 0 0 4 9 11 13 13 10 7 6 6 8 6 9 9 10 13 13 15 17 19 19 19 20 14 16 16 21 15 15 15 17 19 22 22 23 23 23 23 21 20
nan nan nan nan nan nan nan nan 0 0 0 nan nan nan nan nan nan nan nan nan nan nan nan nan nan 0 0 2 4 4 8 15 18 15 15 13 9 7 7 7 4 8 8 10 11 11 13 15 17 17 18 13 9 10 10 18 15 17 17 18 17 15 15 15 16 16 17 16 19
nan nan nan nan nan nan nan nan nan nan nan nan nan nan nan nan nan nan nan nan nan nan nan nan nan 0 0 2 8 8 10 15 18 22 22 17 10 6 6 6 4 7 7 8 9 9 11 13 13 13 15 12 6 8 8 8 9 17 17 14 14 13 13 11 10 10 12 13 14
nan 1 1 1 nan nan nan nan nan nan nan nan nan nan nan nan nan nan nan nan nan nan nan nan nan 1 1 4 8 8 8 9 13 18 18 17 12 8 8 5 3 3 3 5 8 8 10 12 13 13 13 8 8 9 9 4 5 11 11 12 11 10 10 7 7 7 8 9 10
nan 1 1 1 nan nan nan nan nan nan nan nan nan nan nan nan nan nan nan nan nan nan nan nan 0 2 2 4 8 8 10 9 10 15 15 16 12 6 6 5 4 2 2 4 7 7 8 11 12 12 11 3 7 6 6 4 4 7 7 7 6 9 9 6 8 8 9 8 5
nan nan nan nan nan nan nan nan nan nan nan nan nan nan nan nan nan nan nan nan nan nan nan 0 1 5 5 8 7 7 14 13 10 11 11 14 12 5 5 4 4 3 3 4 5 5 7 9 10 10 10 3 7 8 8 6 6 7 7 5 4 5 5 6 7 7 6 6 9
nan nan nan nan nan nan nan nan nan nan nan nan nan nan nan nan nan nan nan nan nan 1 1 1 3 7 7 7 6 6 10 11 10 11 11 12 12 8 8 4 4 2 2 3 3 3 6 8 10 10 9 3 4 6 6 7 4 6 6 4 2 3 3 4 5 5 4 5 10
nan nan nan nan nan nan nan nan nan nan nan nan nan nan nan nan nan nan nan nan nan 2 2 2 3 3 3 6 5 5 9 10 8 10 10 9 8 9 9 4 4 2 2 2 4 4 5 7 8 8 8 1 3 3 3 7 4 5 5 2 1 2 2 3 2 2 3 4 5